{"data":{"norad_id":63993,"epoch":"2026-09-21T12:08:41.649504Z","epoch_age_seconds":111846,"freshness":"FRESH","line1":"1 63993U 25100M   26264.50603761  .00004826  00000+0  17721-3 0  9996","line2":"2 63993  97.3563 340.5185 0004520 343.8110  16.2984 15.28400133 75618","mean_motion":15.28400133,"eccentricity":0.000452,"inclination_deg":97.3563,"raan_deg":340.5185,"arg_perigee_deg":343.811,"mean_anomaly_deg":16.2984,"bstar":0.00017721,"rev_number":7561,"period_min":94.216165577892,"perigee_km":477.49427439076,"apogee_km":483.69456759534,"semimajor_km":6858.7314209931,"source":"CELESTRAK","updated_at":"2026-09-22T09:00:29.481118Z"}}